• Em Portugal
  • Lista de países
  • Para 7 dias
  • Temperatura da água
  • Mapas de satélite
  • Mapa do tempo
  • Widgets de tempo
  • user-avatar
    Iniciar Sessão

    Previsão horária em Shkoder

    Hoje, 27 Maio, Domingo

    Tempo Temperatura Precipitação Vento Pressão Humidade
    00:00 +19°C° 0 mm 3 m/s 742 mmHg 80%
    01:00 +18°C° 0 mm 3 m/s 742 mmHg 81%
    02:00 +18°C° 0 mm 3 m/s 742 mmHg 81%
    03:00 +18°C° 0 mm 3 m/s 742 mmHg 81%
    04:00 +17°C° 0 mm 3 m/s 742 mmHg 81%
    05:00 +19°C° 0 mm 3 m/s 742 mmHg 78%
    06:00 +21°C° 0 mm 3 m/s 742 mmHg 74%
    07:00 +24°C° 0 mm 2 m/s 742 mmHg 71%
    08:00 +25°C° 0 mm 2 m/s 742 mmHg 65%
    09:00 +27°C° 0 mm 2 m/s 742 mmHg 58%
    10:00 +28°C° 0 mm 2 m/s 742 mmHg 52%
    11:00 +29°C° 0,1 mm 2 m/s 742 mmHg 51%
    12:00 +29°C° 0,1 mm 2 m/s 742 mmHg 51%
    13:00 +29°C° 0,1 mm 2 m/s 741 mmHg 50%
    14:00 +29°C° 0,3 mm 3 m/s 741 mmHg 52%
    15:00 +29°C° 0,3 mm 3 m/s 741 mmHg 55%
    16:00 +29°C° 0,3 mm 3 m/s 741 mmHg 57%
    17:00 +27°C° 0,2 mm 2 m/s 741 mmHg 63%
    18:00 +25°C° 0,2 mm 2 m/s 741 mmHg 70%
    19:00 +23°C° 0,2 mm 2 m/s 741 mmHg 77%
    20:00 +21°C° 0 mm 2 m/s 741 mmHg 77%
    21:00 +21°C° 0 mm 2 m/s 741 mmHg 77%
    22:00 +20°C° 0 mm 2 m/s 742 mmHg 77%
    23:00 +20°C° 0 mm 2 m/s 742 mmHg 78%

    Amanhã, 28 Maio, Segunda-feira

    Tempo Temperatura Precipitação Vento Pressão Humidade
    00:00 +20°C° 0 mm 2 m/s 742 mmHg 78%
    01:00 +19°C° 0 mm 2 m/s 742 mmHg 79%
    02:00 +19°C° 0 mm 2 m/s 742 mmHg 79%
    03:00 +19°C° 0 mm 2 m/s 741 mmHg 80%
    04:00 +18°C° 0 mm 2 m/s 741 mmHg 80%
    05:00 +20°C° 0 mm 2 m/s 741 mmHg 77%
    06:00 +23°C° 0 mm 2 m/s 742 mmHg 74%
    07:00 +24°C° 0 mm 1 m/s 742 mmHg 71%
    08:00 +26°C° 0 mm 1 m/s 742 mmHg 65%
    09:00 +27°C° 0 mm 1 m/s 742 mmHg 59%
    10:00 +29°C° 0 mm 1 m/s 742 mmHg 53%
    11:00 +29°C° 0,1 mm 2 m/s 742 mmHg 52%
    12:00 +29°C° 0,1 mm 2 m/s 741 mmHg 52%
    13:00 +30°C° 0,1 mm 2 m/s 741 mmHg 51%
    14:00 +29°C° 0,3 mm 2 m/s 741 mmHg 54%
    15:00 +29°C° 0,3 mm 3 m/s 740 mmHg 56%
    16:00 +28°C° 0,3 mm 3 m/s 740 mmHg 59%
    17:00 +27°C° 0,3 mm 2 m/s 740 mmHg 65%
    18:00 +25°C° 0,3 mm 2 m/s 740 mmHg 72%
    19:00 +23°C° 0,3 mm 1 m/s 741 mmHg 78%
    20:00 +23°C° 0 mm 1 m/s 741 mmHg 78%
    21:00 +21°C° 0 mm 2 m/s 741 mmHg 78%
    22:00 +20°C° 0 mm 2 m/s 741 mmHg 78%
    23:00 +20°C° 0 mm 2 m/s 741 mmHg 79%

    Depois de amanhã, 29 Maio, Terça-feira

    Tempo Temperatura Precipitação Vento Pressão Humidade
    00:00 +20°C° 0 mm 2 m/s 741 mmHg 79%
    01:00 +19°C° 0 mm 2 m/s 741 mmHg 79%
    02:00 +19°C° 0 mm 2 m/s 741 mmHg 80%
    03:00 +19°C° 0 mm 2 m/s 741 mmHg 81%
    04:00 +18°C° 0 mm 2 m/s 740 mmHg 82%
    05:00 +20°C° 0 mm 2 m/s 740 mmHg 78%
    06:00 +23°C° 0 mm 2 m/s 740 mmHg 75%
    07:00 +24°C° 0 mm 2 m/s 740 mmHg 72%
    08:00 +26°C° 0 mm 2 m/s 740 mmHg 66%
    09:00 +27°C° 0 mm 2 m/s 740 mmHg 60%
    10:00 +29°C° 0 mm 1 m/s 740 mmHg 55%
    11:00 +29°C° 0,1 mm 2 m/s 740 mmHg 54%
    12:00 +29°C° 0,1 mm 3 m/s 740 mmHg 54%
    13:00 +30°C° 0,1 mm 3 m/s 740 mmHg 53%
    14:00 +29°C° 0,3 mm 3 m/s 739 mmHg 56%
    15:00 +29°C° 0,3 mm 3 m/s 739 mmHg 58%
    16:00 +28°C° 0,3 mm 2 m/s 739 mmHg 60%
    17:00 +27°C° 0,1 mm 2 m/s 739 mmHg 66%
    18:00 +25°C° 0,1 mm 2 m/s 739 mmHg 71%
    19:00 +24°C° 0,1 mm 1 m/s 739 mmHg 77%
    20:00 +23°C° 0 mm 1 m/s 739 mmHg 76%
    21:00 +22°C° 0 mm 1 m/s 739 mmHg 76%
    22:00 +22°C° 0 mm 1 m/s 739 mmHg 76%
    23:00 +21°C° 0 mm 1 m/s 739 mmHg 75%

    30 Maio, Quarta-feira

    Tempo Temperatura Precipitação Vento Pressão Humidade
    00:00 +21°C° 0 mm 1 m/s 739 mmHg 75%
    01:00 +21°C° 0 mm 1 m/s 739 mmHg 74%
    02:00 +20°C° 0 mm 1 m/s 738 mmHg 74%
    03:00 +20°C° 0 mm 1 m/s 738 mmHg 74%
    04:00 +20°C° 0 mm 1 m/s 738 mmHg 74%
    05:00 +22°C° 0 mm 1 m/s 738 mmHg 71%
    06:00 +23°C° 0 mm 1 m/s 738 mmHg 69%
    07:00 +25°C° 0 mm 1 m/s 738 mmHg 66%
    08:00 +26°C° 0 mm 1 m/s 738 mmHg 62%
    09:00 +27°C° 0 mm 1 m/s 738 mmHg 58%
    10:00 +28°C° 0 mm 1 m/s 739 mmHg 54%
    11:00 +28°C° 0,3 mm 2 m/s 738 mmHg 56%
    12:00 +29°C° 0,3 mm 2 m/s 738 mmHg 57%
    13:00 +29°C° 0,3 mm 2 m/s 738 mmHg 58%
    14:00 +28°C° 0,3 mm 2 m/s 738 mmHg 60%
    15:00 +28°C° 0,3 mm 2 m/s 738 mmHg 63%
    16:00 +27°C° 0,3 mm 1 m/s 737 mmHg 65%
    17:00 +26°C° 0,2 mm 1 m/s 737 mmHg 71%
    18:00 +25°C° 0,2 mm 1 m/s 737 mmHg 77%
    19:00 +23°C° 0,2 mm 1 m/s 737 mmHg 83%
    20:00 +23°C° 0,4 mm 1 m/s 738 mmHg 85%
    21:00 +22°C° 0,4 mm 1 m/s 738 mmHg 86%
    22:00 +21°C° 0,4 mm 1 m/s 738 mmHg 88%
    23:00 +21°C° 0,4 mm 1 m/s 738 mmHg 88%

    31 Maio, Quinta-feira

    Tempo Temperatura Precipitação Vento Pressão Humidade
    00:00 +21°C° 0,4 mm 1 m/s 738 mmHg 89%
    01:00 +21°C° 0,4 mm 1 m/s 738 mmHg 90%
    02:00 +20°C° 0 mm 1 m/s 737 mmHg 90%
    03:00 +20°C° 0 mm 1 m/s 737 mmHg 90%
    04:00 +20°C° 0 mm 1 m/s 737 mmHg 90%
    05:00 +21°C° 0 mm 1 m/s 737 mmHg 84%
    06:00 +23°C° 0 mm 1 m/s 737 mmHg 78%
    07:00 +25°C° 0 mm 1 m/s 737 mmHg 72%
    08:00 +26°C° 0,4 mm 1 m/s 737 mmHg 68%
    09:00 +27°C° 0,4 mm 2 m/s 737 mmHg 65%
    10:00 +28°C° 0,4 mm 2 m/s 737 mmHg 61%
    11:00 +28°C° 0,5 mm 2 m/s 737 mmHg 61%
    12:00 +28°C° 0,5 mm 2 m/s 737 mmHg 60%
    13:00 +29°C° 0,5 mm 3 m/s 737 mmHg 59%
    14:00 +28°C° 0,4 mm 3 m/s 737 mmHg 61%
    15:00 +28°C° 0,4 mm 2 m/s 737 mmHg 63%
    16:00 +28°C° 0,4 mm 2 m/s 737 mmHg 65%
    17:00 +26°C° 0,2 mm 2 m/s 737 mmHg 72%
    18:00 +25°C° 0,2 mm 2 m/s 737 mmHg 78%
    19:00 +23°C° 0,2 mm 1 m/s 737 mmHg 85%
    20:00 +22°C° 0,3 mm 1 m/s 737 mmHg 86%
    21:00 +22°C° 0,3 mm 1 m/s 738 mmHg 88%
    22:00 +21°C° 0,3 mm 1 m/s 738 mmHg 89%
    23:00 +21°C° 0,2 mm 1 m/s 738 mmHg 89%

    1 Junho, Sexta-feira

    Tempo Temperatura Precipitação Vento Pressão Humidade
    00:00 +20°C° 0,2 mm 1 m/s 738 mmHg 88%
    01:00 +20°C° 0,2 mm 1 m/s 737 mmHg 88%
    02:00 +20°C° 0 mm 1 m/s 737 mmHg 88%
    03:00 +20°C° 0 mm 1 m/s 737 mmHg 87%
    04:00 +19°C° 0 mm 1 m/s 737 mmHg 87%
    05:00 +21°C° 0 mm 1 m/s 738 mmHg 83%
    06:00 +22°C° 0 mm 1 m/s 738 mmHg 79%
    07:00 +24°C° 0 mm 1 m/s 738 mmHg 74%
    08:00 +25°C° 0 mm 1 m/s 738 mmHg 71%
    09:00 +27°C° 0 mm 1 m/s 738 mmHg 67%
    10:00 +28°C° 0 mm 2 m/s 738 mmHg 63%
    11:00 +28°C° 0,4 mm 2 m/s 738 mmHg 63%
    12:00 +29°C° 0,4 mm 2 m/s 737 mmHg 62%
    13:00 +29°C° 0,4 mm 3 m/s 737 mmHg 62%
    14:00 +28°C° 0,9 mm 3 m/s 737 mmHg 65%
    15:00 +28°C° 0,9 mm 3 m/s 737 mmHg 67%
    16:00 +28°C° 0,9 mm 3 m/s 737 mmHg 70%
    17:00 +26°C° 0,9 mm 2 m/s 738 mmHg 76%
    18:00 +25°C° 0,9 mm 2 m/s 738 mmHg 81%
    19:00 +23°C° 0,9 mm 1 m/s 738 mmHg 87%
    20:00 +22°C° 0,4 mm 1 m/s 738 mmHg 88%
    21:00 +22°C° 0,4 mm 1 m/s 738 mmHg 89%
    22:00 +21°C° 0,4 mm 1 m/s 738 mmHg 89%
    23:00 +21°C° 0 mm 1 m/s 738 mmHg 89%
    Mostrar mais